Location: New Plymouth
(39.0670°S, 174.0830°E)
Time: 09:22:13
(UTC+12:00)

Envisat - Visible Passes

Search period start: 20 June 2019 00:00
Search period end: 30 June 2019 00:00
Orbit: 764 x 766 km, 98.1° (Epoch: 19 June)

Date Brightness Start Highest point End Pass type
(mag) Time Alt. Az. Time Alt. Az. Time Alt. Az.
20 Jun 5.2 05:47:05 10° ENE 05:51:05 24° ESE 05:55:07 10° SSE visible
20 Jun 4.1 19:42:15 33° N 19:42:15 33° N 19:45:02 10° N visible
21 Jun 5.9 05:13:28 10° ESE 05:14:48 11° ESE 05:16:09 10° SE visible
21 Jun 3.1 06:47:54 10° NNE 06:53:00 90° ESE 06:58:11 10° SSW visible
21 Jun 4.2 19:05:01 26° NE 19:05:01 26° NE 19:07:41 10° NNE visible
21 Jun 5.6 20:45:12 14° WNW 20:45:12 14° WNW 20:46:09 10° WNW visible
22 Jun 4.3 06:11:38 10° NE 06:16:23 40° ESE 06:21:11 10° S visible
22 Jun 4.8 18:27:46 13° ENE 18:27:46 13° ENE 18:28:55 10° NE visible
22 Jun 4.6 20:07:58 28° NW 20:07:58 28° NW 20:10:24 10° NNW visible
23 Jun 5.5 05:36:26 10° ENE 05:39:57 19° ESE 05:43:31 10° SSE visible
23 Jun 4.0 19:30:43 35° NNE 19:30:43 35° NNE 19:33:43 10° N visible
24 Jun 3.3 06:36:43 10° NNE 06:41:47 71° ESE 06:46:56 10° S visible
24 Jun 4.3 18:53:28 22° NE 18:53:28 22° NE 18:56:03 10° NNE visible
24 Jun 5.3 20:33:40 19° WNW 20:33:40 19° WNW 20:35:19 10° NW visible
25 Jun 4.7 06:00:44 10° NE 06:05:14 32° ESE 06:09:46 10° S visible
25 Jun 5.0 18:16:13 10° ENE 18:16:13 10° ENE 18:16:22 10° ENE visible
25 Jun 4.2 19:56:25 34° NNW 19:56:25 34° NNW 19:59:17 10° NNW visible
26 Jun 5.7 05:25:58 10° E 05:28:52 15° ESE 05:31:46 10° SSE visible
26 Jun 3.1 07:02:14 10° N 07:07:18 65° W 07:12:26 10° SSW visible
26 Jun 3.9 19:19:10 34° NNE 19:19:10 34° NNE 19:22:19 10° N visible
26 Jun 5.9 20:59:22 11° WNW 20:59:22 11° WNW 20:59:41 10° WNW visible
27 Jun 3.7 06:25:36 10° NNE 06:30:35 56° ESE 06:35:38 10° S visible
27 Jun 4.5 18:41:55 19° ENE 18:41:55 19° ENE 18:44:18 10° NE visible
27 Jun 4.9 20:22:06 25° NW 20:22:06 25° NW 20:24:23 10° NW visible
28 Jun 5.1 05:49:56 10° ENE 05:54:05 26° ESE 05:58:17 10° SSE visible
28 Jun 3.9 19:44:51 40° N 19:44:51 40° N 19:48:04 10° NNW visible
29 Jun 5.8 05:15:51 10° E 05:17:47 12° ESE 05:19:44 10° SE visible
29 Jun 3.0 06:50:56 10° N 06:56:03 83° WNW 07:01:15 10° SSW visible
29 Jun 3.9 19:07:36 31° NE 19:07:36 31° NE 19:10:51 10° NNE visible
29 Jun 5.6 20:47:47 16° WNW 20:47:47 16° WNW 20:49:01 10° WNW visible
